Regional Weather Roundup
Issued by NWS Raleigh/Durham, NC

Home | Current Version | Previous Version | Text Only | Print | Product List | Glossary On
Versions: 1 2 3 4 5 6 7 8 9 10 11 12 13 14 15 16 17 18 19 20 21 22 23 24 25 26 27 28 29 30 31 32 33 34 35 36 37 38 39 40 41 42 43 44 45 46 47 48 49 50
000
ASUS42 KRAH 301210
RWRRAH
NORTH CAROLINA WEATHER ROUNDUP
NATIONAL WEATHER SERVICE RALEIGH NC
700 AM EST FRI JAN 30 2015

NOTE: "FAIR" INDICATES FEW OR NO CLOUDS BELOW 12,000 FEET WITH NO
SIGNIFICANT WEATHER AND/OR OBSTRUCTIONS TO VISIBILITY.

NCZ001-053-055-056-065-067-301300-
WESTERN NORTH CAROLINA

CITY           SKY/WX    TMP DP  RH WIND       PRES   REMARKS
ASHEVILLE      MOCLDY    31  25  78 N20G29    30.12R WCI  19
JEFFERSON      FLURRIES  27  21  78 NW20G44   30.02R WCI  13
HICKORY        PTCLDY    37  24  59 NW9       30.08R WCI  30
RUTHERFORDTON  NOT AVBL
MOUNT AIRY     CLOUDY    39  24  55 NW21G29   30.09R WCI  29
$$

NCZ021-022-025-041-071-084-088-301300-
CENTRAL NORTH CAROLINA

CITY           SKY/WX    TMP DP  RH WIND       PRES   REMARKS
CHARLOTTE      PTCLDY    42  23  46 NW13G24   30.09R
GREENSBORO     MOCLDY    41  23  48 NW21G28   30.03R
WINSTON-SALEM  MOCLDY    40  21  46 NW15G24   30.07R WCI  32
RALEIGH-DURHAM PTCLDY    41  27  57 VRB5      30.00R
FORT BRAGG     CLOUDY    45  31  57 NW8       30.01R
FAYETTEVILLE   CLOUDY    46  32  58 NW9       30.01R
$$

NCZ011-015-027-028-043-044-047-080-103-301300-
NORTHEASTERN NORTH CAROLINA

CITY           SKY/WX    TMP DP  RH WIND       PRES   REMARKS
ROANOKE RAPIDS CLOUDY    37  34  87 SW3       29.98R
ROCKY MT-WILSO CLOUDY    43  31  62 NW3       29.99R
GREENVILLE     CLOUDY    43  37  81 W3        30.00R
WASHINGTON     RAIN      43  40  86 W5        29.98R
ELIZABETH CITY NOT AVBL
MANTEO         CLOUDY    46  37  71 W13G21    29.94R
CAPE HATTERAS  CLOUDY    50  44  80 W10       29.94F
$$

NCZ078-087-090-091-093-098-101-301300-
SOUTHEASTERN NORTH CAROLINA

CITY           SKY/WX    TMP DP  RH WIND       PRES   REMARKS
LUMBERTON      CLOUDY    48  35  60 NW13      30.01R
GOLDSBORO      CLOUDY    44  43  97 W5        29.98R
KINSTON        LGT RAIN  45  39  81 W6        29.99R
KENANSVILLE    CLOUDY    46  39  77 W7        30.00R
NEW BERN       LGT RAIN  50  41  71 W8G17     29.97S
CHERRY POINT   LGT RAIN  50  42  74 W12       29.97R
BEAUFORT       CLOUDY    50  45  83 W9        29.96S
JACKSONVILLE   LGT RAIN  47  42  83 W9        29.97R
WILMINGTON     LGT RAIN  49  44  83 W8        29.97S
$$




USA.gov is the U.S. government's official web portal to all federal, state and local government web resources and services.